Weather History for KFRI - August, 2013

Change the Weather History Date:

Friday, August 23, 2013

  Actual Average (KMHK) Record (KMHK)
Temperature  
Mean Temperature 80 °F 76 °F  
Max Temperature 91 °F 88 °F - ()
Min Temperature 69 °F 64 °F - ()
Degree Days  
Heating Degree Days 0 0  
Month to date heating degree days 0  
Since 1 June heating degree days 12  
Since 1 July heating degree days 1  
Cooling Degree Days 15 11  
Month to date cooling degree days 297  
Year to date cooling degree days 1103  
Since 1 June cooling degree days 1003  
Growing Degree Days 30 (Base 50)    
Moisture  
Dew Point 70 °F    
Average Humidity 71    
Maximum Humidity 99    
Minimum Humidity 49    
Precipitation  
Precipitation 0.00 in 0.16 in - ()
Month to date precipitation 3.00  
Year to date precipitation 23.26  
Sea Level Pressure  
Sea Level Pressure 30.01 in    
Wind  
Wind Speed 7 mph (SE)    
Max Wind Speed 17 mph    
Max Gust Speed 25 mph    
Visibility 10 miles    
Events      
T = Trace of Precipitation, MM = Missing Value Source: NWS Daily Summary

Daily Weather History Graph

Daily Weather History Graph

Search for Another Location

Airport or City:

Trip Planner

Search our weather history database for the weather conditions in past years. The results will help you decide how hot, cold, wet, or windy it might be!

Date:

Astronomy

Aug. 23, 2013 Rise Set
Actual Time 6:47 AM CDT 8:10 PM CDT
Civil Twilight 6:19 AM CDT 8:38 PM CDT
Nautical Twilight 5:46 AM CDT 9:11 PM CDT
Astronomical Twilight 5:11 AM CDT 9:46 PM CDT
Moon 9:32 PM CDT (8/23) 9:42 AM CDT (8/23)
Length of Visible Light 14h 18m
Length of Day
13h 22m
Waning Gibbous, 91% of the Moon is Illuminated
Aug 23
Waning Gibbous
Aug 28
Last Quarter
Sep 5
New
Sep 12
First Quarter
Sep 19
Full

Hourly Weather History & Observations

Time (CDT) Temp. Heat Index Dew Point Humidity Pressure Visibility Wind Dir Wind Speed Gust Speed Precip Events Conditions
12:58 AM 77.2 °F - 68.0 °F 73% 30.01 in 10.0 mi SSE 11.5 mph - N/A   Clear
1:58 AM 75.7 °F - 68.0 °F 77% 30.01 in 10.0 mi SE 8.1 mph - N/A   Clear
2:58 AM 72.5 °F - 67.8 °F 85% 30.03 in 10.0 mi Calm Calm - N/A   Clear
3:58 AM 71.2 °F - 68.2 °F 90% 30.03 in 10.0 mi NE 2.3 mph - N/A   Clear
4:58 AM 71.6 °F - 67.8 °F 88% 30.02 in 10.0 mi NNE 3.5 mph - N/A   Clear
5:58 AM 70.5 °F - 68.4 °F 93% 30.02 in 10.0 mi Calm Calm - N/A   Clear
6:58 AM 69.6 °F - 69.3 °F 99% 30.04 in 10.0 mi NE 4.6 mph - N/A   Clear
7:58 AM 71.2 °F - 68.4 °F 91% 30.04 in 10.0 mi North 3.5 mph - N/A   Clear
8:58 AM 74.3 °F - 69.1 °F 84% 30.05 in 10.0 mi North 2.3 mph - N/A   Clear
9:16 AM 77.0 °F - 69.8 °F 78% 30.08 in 10.0 mi Variable 1.2 mph - N/A   Light Drizzle
9:20 AM 77.0 °F - 69.8 °F 78% 30.08 in 10.0 mi Calm Calm - N/A   Clear
9:32 AM 77.0 °F - 69.8 °F 78% 30.07 in 10.0 mi Variable 2.3 mph - N/A   Light Drizzle
9:58 AM 80.4 °F 83.6 °F 70.0 °F 70% 30.04 in 10.0 mi Variable 6.9 mph - 0.00 in   Light Drizzle
10:02 AM 82.4 °F 86.3 °F 69.8 °F 66% 30.07 in 10.0 mi ESE 6.9 mph - N/A   Clear
10:58 AM 85.8 °F 90.4 °F 70.2 °F 59% 30.03 in 10.0 mi ESE 10.4 mph - 0.00 in   Clear
11:58 AM 88.2 °F 93.7 °F 70.5 °F 56% 30.01 in 10.0 mi SE 10.4 mph - N/A   Clear
12:58 PM 89.6 °F 96.2 °F 71.2 °F 55% 29.99 in 10.0 mi SE 13.8 mph - N/A   Clear
1:58 PM 90.3 °F 96.2 °F 70.5 °F 52% 29.98 in 10.0 mi SSE 15.0 mph - N/A   Partly Cloudy
2:58 PM 88.5 °F 94.0 °F 70.3 °F 55% 29.96 in 10.0 mi SSE 12.7 mph - N/A   Partly Cloudy
3:58 PM 91.0 °F 96.1 °F 69.4 °F 49% 29.96 in 10.0 mi SSE 17.3 mph 25.3 mph N/A   Clear
4:58 PM 90.5 °F 95.1 °F 69.1 °F 49% 29.96 in 10.0 mi South 12.7 mph - N/A   Clear
5:58 PM 88.3 °F 94.1 °F 70.7 °F 56% 29.96 in 10.0 mi SSE 9.2 mph - N/A   Clear
6:58 PM 87.1 °F 92.0 °F 70.0 °F 57% 29.95 in 10.0 mi SE 11.5 mph - N/A   Clear
7:58 PM 84.4 °F 89.7 °F 71.2 °F 65% 29.94 in 10.0 mi SE 9.2 mph - N/A   Clear
8:58 PM 82.2 °F 86.2 °F 70.3 °F 67% 29.95 in 10.0 mi SE 8.1 mph - N/A   Clear
9:58 PM 81.1 °F 84.7 °F 70.0 °F 69% 29.97 in 10.0 mi SE 8.1 mph - N/A   Clear
10:58 PM 80.8 °F 84.1 °F 69.6 °F 69% 29.97 in 10.0 mi SE 8.1 mph - N/A   Clear
11:58 PM 80.4 °F 83.4 °F 69.1 °F 68% 29.99 in 10.0 mi SSE 8.1 mph - N/A   Clear